Year,Month,Day,Hour,Minute,Value (Times are PST for temperature in C)
2019,03,20,00,00,19.00
2019,03,20,00,01,19.00
2019,03,20,00,02,19.00
2019,03,20,00,03,19.00
2019,03,20,00,04,19.00
2019,03,20,00,05,19.10
2019,03,20,00,06,19.10
2019,03,20,00,07,19.00
2019,03,20,00,08,19.00
2019,03,20,00,09,19.00
2019,03,20,00,10,18.90
2019,03,20,00,11,18.90
2019,03,20,00,12,18.80
2019,03,20,00,13,18.70
2019,03,20,00,14,18.60
2019,03,20,00,15,18.50
2019,03,20,00,16,18.50
2019,03,20,00,17,18.40
2019,03,20,00,18,18.30
2019,03,20,00,19,18.20
2019,03,20,00,20,18.20
2019,03,20,00,21,18.10
2019,03,20,00,22,18.10
2019,03,20,00,23,18.00
2019,03,20,00,24,18.00
2019,03,20,00,25,18.00
2019,03,20,00,26,18.00
2019,03,20,00,27,18.00
2019,03,20,00,28,18.00
2019,03,20,00,29,18.10
2019,03,20,00,30,18.10
2019,03,20,00,31,18.10
2019,03,20,00,32,18.10
2019,03,20,00,33,18.10
2019,03,20,00,34,18.10
2019,03,20,00,35,18.10
2019,03,20,00,36,18.10
2019,03,20,00,37,18.00
2019,03,20,00,38,18.00
2019,03,20,00,39,17.90
2019,03,20,00,40,17.90
2019,03,20,00,41,17.90
2019,03,20,00,42,17.90
2019,03,20,00,43,17.90
2019,03,20,00,44,17.90
2019,03,20,00,45,17.90
2019,03,20,00,46,17.90
2019,03,20,00,47,17.90
2019,03,20,00,48,17.90
2019,03,20,00,49,17.80
2019,03,20,00,50,17.80
2019,03,20,00,51,17.70
2019,03,20,00,52,17.70
2019,03,20,00,53,17.70
2019,03,20,00,54,17.60
2019,03,20,00,55,17.60
2019,03,20,00,56,17.50
2019,03,20,00,57,17.40
2019,03,20,00,58,17.40
2019,03,20,00,59,17.40
2019,03,20,01,00,17.30
2019,03,20,01,01,17.30
2019,03,20,01,02,17.30
2019,03,20,01,03,17.30
2019,03,20,01,04,17.30
2019,03,20,01,05,17.30
2019,03,20,01,06,17.30
2019,03,20,01,07,17.40
2019,03,20,01,08,17.40
2019,03,20,01,09,17.50
2019,03,20,01,10,17.60
2019,03,20,01,11,17.60
2019,03,20,01,12,17.60
2019,03,20,01,13,17.70
2019,03,20,01,14,17.70
2019,03,20,01,15,17.70
2019,03,20,01,16,17.80
2019,03,20,01,17,17.80
2019,03,20,01,18,17.80
2019,03,20,01,19,17.90
2019,03,20,01,20,17.90
2019,03,20,01,21,17.90
2019,03,20,01,22,17.90
2019,03,20,01,23,17.80
2019,03,20,01,24,17.80
2019,03,20,01,25,17.70
2019,03,20,01,26,17.70
2019,03,20,01,27,17.70
2019,03,20,01,28,17.70
2019,03,20,01,29,17.70
2019,03,20,01,30,17.70
2019,03,20,01,31,17.70
2019,03,20,01,32,17.70
2019,03,20,01,33,17.70
2019,03,20,01,34,17.70
2019,03,20,01,35,17.70
2019,03,20,01,36,17.70
2019,03,20,01,37,17.70
2019,03,20,01,38,17.60
2019,03,20,01,39,17.60
2019,03,20,01,40,17.60
2019,03,20,01,41,17.60
2019,03,20,01,42,17.60
2019,03,20,01,43,17.60
2019,03,20,01,44,17.60
2019,03,20,01,45,17.60
2019,03,20,01,46,17.60
2019,03,20,01,47,17.70
2019,03,20,01,48,17.80
2019,03,20,01,49,17.80
2019,03,20,01,50,17.90
2019,03,20,01,51,17.90
2019,03,20,01,52,18.00
2019,03,20,01,53,18.00
2019,03,20,01,54,18.10
2019,03,20,01,55,18.20
2019,03,20,01,56,18.20
2019,03,20,01,57,18.30
2019,03,20,01,58,18.40
2019,03,20,01,59,18.50
2019,03,20,02,00,18.50
2019,03,20,02,01,18.60
2019,03,20,02,02,18.60
2019,03,20,02,03,18.60
2019,03,20,02,04,18.60
2019,03,20,02,05,18.60
2019,03,20,02,06,18.60
2019,03,20,02,07,18.60
2019,03,20,02,08,18.60
2019,03,20,02,09,18.60
2019,03,20,02,10,18.50
2019,03,20,02,11,18.50
2019,03,20,02,12,18.40
2019,03,20,02,13,18.30
2019,03,20,02,14,18.30
2019,03,20,02,15,18.20
2019,03,20,02,16,18.20
2019,03,20,02,17,18.20
2019,03,20,02,18,18.20
2019,03,20,02,19,18.20
2019,03,20,02,20,18.20
2019,03,20,02,21,18.30
2019,03,20,02,22,18.30
2019,03,20,02,23,18.30
2019,03,20,02,24,18.40
2019,03,20,02,25,18.40
2019,03,20,02,26,18.50
2019,03,20,02,27,18.50
2019,03,20,02,28,18.50
2019,03,20,02,29,18.60
2019,03,20,02,30,18.70
2019,03,20,02,31,18.80
2019,03,20,02,32,18.80
2019,03,20,02,33,18.90
2019,03,20,02,34,18.90
2019,03,20,02,35,18.90
2019,03,20,02,36,19.00
2019,03,20,02,37,19.00
2019,03,20,02,38,19.10
2019,03,20,02,39,19.10
2019,03,20,02,40,19.10
2019,03,20,02,41,19.10
2019,03,20,02,42,19.10
2019,03,20,02,43,19.00
2019,03,20,02,44,19.00
2019,03,20,02,45,19.00
2019,03,20,02,46,19.00
2019,03,20,02,47,19.00
2019,03,20,02,48,19.00
2019,03,20,02,49,19.00
2019,03,20,02,50,18.90
2019,03,20,02,51,18.90
2019,03,20,02,52,18.80
2019,03,20,02,53,18.80
2019,03,20,02,54,18.80
2019,03,20,02,55,18.80
2019,03,20,02,56,18.80
2019,03,20,02,57,18.90
2019,03,20,02,58,18.90
2019,03,20,02,59,18.90
2019,03,20,03,00,18.80
2019,03,20,03,01,18.80
2019,03,20,03,02,18.80
2019,03,20,03,03,18.80
2019,03,20,03,04,18.80
2019,03,20,03,05,18.80
2019,03,20,03,06,18.80
2019,03,20,03,07,18.80
2019,03,20,03,08,18.80
2019,03,20,03,09,18.80
2019,03,20,03,10,18.80
2019,03,20,03,11,18.70
2019,03,20,03,12,18.70
2019,03,20,03,13,18.70
2019,03,20,03,14,18.60
2019,03,20,03,15,18.60
2019,03,20,03,16,18.60
2019,03,20,03,17,18.50
2019,03,20,03,18,18.40
2019,03,20,03,19,18.50
2019,03,20,03,20,18.50
2019,03,20,03,21,18.50
2019,03,20,03,22,18.50
2019,03,20,03,23,18.40
2019,03,20,03,24,18.40
2019,03,20,03,25,18.40
2019,03,20,03,26,18.40
2019,03,20,03,27,18.50
2019,03,20,03,28,18.50
2019,03,20,03,29,18.50
2019,03,20,03,30,18.50
2019,03,20,03,31,18.50
2019,03,20,03,32,18.50
2019,03,20,03,33,18.50
2019,03,20,03,34,18.60
2019,03,20,03,35,18.60
2019,03,20,03,36,18.60
2019,03,20,03,37,18.60
2019,03,20,03,38,18.50
2019,03,20,03,39,18.50
2019,03,20,03,40,18.40
2019,03,20,03,41,18.40
2019,03,20,03,42,18.40
2019,03,20,03,43,18.40
2019,03,20,03,44,18.30
2019,03,20,03,45,18.30
2019,03,20,03,46,18.20
2019,03,20,03,47,18.10
2019,03,20,03,48,18.00
2019,03,20,03,49,17.90
2019,03,20,03,50,17.90
2019,03,20,03,51,17.70
2019,03,20,03,52,17.60
2019,03,20,03,53,17.40
2019,03,20,03,54,17.10
2019,03,20,03,55,16.80
2019,03,20,03,56,16.50
2019,03,20,03,57,16.20
2019,03,20,03,58,16.00
2019,03,20,03,59,15.70
2019,03,20,04,00,15.60
2019,03,20,04,01,15.40
2019,03,20,04,02,15.30
2019,03,20,04,03,15.20
2019,03,20,04,04,15.00
2019,03,20,04,05,14.80
2019,03,20,04,06,14.70
2019,03,20,04,07,14.60
2019,03,20,04,08,14.60
2019,03,20,04,09,14.50
2019,03,20,04,10,14.40
2019,03,20,04,11,14.30
2019,03,20,04,12,14.20
2019,03,20,04,13,14.10
2019,03,20,04,14,14.00
2019,03,20,04,15,13.80
2019,03,20,04,16,13.70
2019,03,20,04,17,13.60
2019,03,20,04,18,13.50
2019,03,20,04,19,13.40
2019,03,20,04,20,13.30
2019,03,20,04,21,13.20
2019,03,20,04,22,13.10
2019,03,20,04,23,13.10
2019,03,20,04,24,13.00
2019,03,20,04,25,13.00
2019,03,20,04,26,13.00
2019,03,20,04,27,13.00
2019,03,20,04,28,12.90
2019,03,20,04,29,13.00
2019,03,20,04,30,13.00
2019,03,20,04,31,13.00
2019,03,20,04,32,13.00
2019,03,20,04,33,13.00
2019,03,20,04,34,13.00
2019,03,20,04,35,12.90
2019,03,20,04,36,12.90
2019,03,20,04,37,12.80
2019,03,20,04,38,12.80
2019,03,20,04,39,12.70
2019,03,20,04,40,12.70
2019,03,20,04,41,12.60
2019,03,20,04,42,12.60
2019,03,20,04,43,12.60
2019,03,20,04,44,12.60
2019,03,20,04,45,12.60
2019,03,20,04,46,12.70
2019,03,20,04,47,12.70
2019,03,20,04,48,12.80
2019,03,20,04,49,12.80
2019,03,20,04,50,12.80
2019,03,20,04,51,12.80
2019,03,20,04,52,12.90
2019,03,20,04,53,12.90
2019,03,20,04,54,12.90
2019,03,20,04,55,13.00
2019,03,20,04,56,13.00
2019,03,20,04,57,13.10
2019,03,20,04,58,13.10
2019,03,20,04,59,13.20
2019,03,20,05,00,13.20
2019,03,20,05,01,13.20
2019,03,20,05,02,13.30
2019,03,20,05,03,13.30
2019,03,20,05,04,13.30
2019,03,20,05,05,13.30
2019,03,20,05,06,13.20
2019,03,20,05,07,13.10
2019,03,20,05,08,13.00
2019,03,20,05,09,12.80
2019,03,20,05,10,12.70
2019,03,20,05,11,12.50
2019,03,20,05,12,12.40
2019,03,20,05,13,12.20
2019,03,20,05,14,12.10
2019,03,20,05,15,11.90
2019,03,20,05,16,11.70
2019,03,20,05,17,11.50
2019,03,20,05,18,11.40
2019,03,20,05,19,11.30
2019,03,20,05,20,11.20
2019,03,20,05,21,11.20
2019,03,20,05,22,11.10
2019,03,20,05,23,11.00
2019,03,20,05,24,11.00
2019,03,20,05,25,11.00
2019,03,20,05,26,11.00
2019,03,20,05,27,11.00
2019,03,20,05,28,11.00
2019,03,20,05,29,11.00
2019,03,20,05,30,10.90
2019,03,20,05,31,10.90
2019,03,20,05,32,10.80
2019,03,20,05,33,10.80
2019,03,20,05,34,10.70
2019,03,20,05,35,10.70
2019,03,20,05,36,10.70
2019,03,20,05,37,10.70
2019,03,20,05,38,10.70
2019,03,20,05,39,10.70
2019,03,20,05,40,10.70
2019,03,20,05,41,10.60
2019,03,20,05,42,10.60
2019,03,20,05,43,10.60
2019,03,20,05,44,10.50
2019,03,20,05,45,10.50
2019,03,20,05,46,10.50
2019,03,20,05,47,10.40
2019,03,20,05,48,10.40
2019,03,20,05,49,10.50
2019,03,20,05,50,10.60
2019,03,20,05,51,10.60
2019,03,20,05,52,10.60
2019,03,20,05,53,10.60
2019,03,20,05,54,10.60
2019,03,20,05,55,10.70
2019,03,20,05,56,10.70
2019,03,20,05,57,10.70
2019,03,20,05,58,10.80
2019,03,20,05,59,10.80
2019,03,20,06,00,10.80
2019,03,20,06,01,10.90
2019,03,20,06,02,10.90
2019,03,20,06,03,10.90
2019,03,20,06,04,10.90
2019,03,20,06,05,11.00
2019,03,20,06,06,11.00
2019,03,20,06,07,11.10
2019,03,20,06,08,11.20
2019,03,20,06,09,11.30
2019,03,20,06,10,11.40
2019,03,20,06,11,11.50
2019,03,20,06,12,11.60
2019,03,20,06,13,11.60
2019,03,20,06,14,11.70
2019,03,20,06,15,11.70
2019,03,20,06,16,11.70
2019,03,20,06,17,11.70
2019,03,20,06,18,11.60
2019,03,20,06,19,11.60
2019,03,20,06,20,11.50
2019,03,20,06,21,11.40
2019,03,20,06,22,11.40
2019,03,20,06,23,11.30
2019,03,20,06,24,11.30
2019,03,20,06,25,11.20
2019,03,20,06,26,11.20
2019,03,20,06,27,11.20
2019,03,20,06,28,11.20
2019,03,20,06,29,11.20
2019,03,20,06,30,11.20
2019,03,20,06,31,11.10
2019,03,20,06,32,11.10
2019,03,20,06,33,11.00
2019,03,20,06,34,10.90
2019,03,20,06,35,10.80
2019,03,20,06,36,10.80
2019,03,20,06,37,10.70
2019,03,20,06,38,10.60
2019,03,20,06,39,10.60
2019,03,20,06,40,10.50
2019,03,20,06,41,10.50
2019,03,20,06,42,10.40
2019,03,20,06,43,10.40
2019,03,20,06,44,10.30
2019,03,20,06,45,10.30
2019,03,20,06,46,10.20
2019,03,20,06,47,10.20
2019,03,20,06,48,10.20
2019,03,20,06,49,10.10
2019,03,20,06,50,10.10
2019,03,20,06,51,10.00
2019,03,20,06,52,10.00
2019,03,20,06,53,10.00
2019,03,20,06,54,10.10
2019,03,20,06,55,10.20
2019,03,20,06,56,10.20
2019,03,20,06,57,10.20
2019,03,20,06,58,10.20
2019,03,20,06,59,10.20
2019,03,20,07,00,10.20
2019,03,20,07,01,10.20
2019,03,20,07,02,10.10
2019,03,20,07,03,10.20
2019,03,20,07,04,10.20
2019,03,20,07,05,10.20
2019,03,20,07,06,10.30
2019,03,20,07,07,10.40
2019,03,20,07,08,10.50
2019,03,20,07,09,10.70
2019,03,20,07,10,10.80
2019,03,20,07,11,10.90
2019,03,20,07,12,10.90
2019,03,20,07,13,11.00
2019,03,20,07,14,11.00
2019,03,20,07,15,11.10
2019,03,20,07,16,11.10
2019,03,20,07,17,11.10
2019,03,20,07,18,11.00
2019,03,20,07,19,11.00
2019,03,20,07,20,10.90
2019,03,20,07,21,10.90
2019,03,20,07,22,10.80
2019,03,20,07,23,10.80
2019,03,20,07,24,10.80
2019,03,20,07,25,10.80
2019,03,20,07,26,10.90
2019,03,20,07,27,10.90
2019,03,20,07,28,10.80
2019,03,20,07,29,10.80
2019,03,20,07,30,10.70
2019,03,20,07,31,10.70
2019,03,20,07,32,10.70
2019,03,20,07,33,10.70
2019,03,20,07,34,10.60
2019,03,20,07,35,10.60
2019,03,20,07,36,10.60
2019,03,20,07,37,10.50
2019,03,20,07,38,10.50
2019,03,20,07,39,10.40
2019,03,20,07,40,10.40
2019,03,20,07,41,10.40
2019,03,20,07,42,10.40
2019,03,20,07,43,10.40
2019,03,20,07,44,10.30
2019,03,20,07,45,10.30
2019,03,20,07,46,10.30
2019,03,20,07,47,10.20
2019,03,20,07,48,10.10
2019,03,20,07,49,10.10
2019,03,20,07,50,10.00
2019,03,20,07,51,9.90
2019,03,20,07,52,9.90
2019,03,20,07,53,9.90
2019,03,20,07,54,9.80
2019,03,20,07,55,9.80
2019,03,20,07,56,9.70
2019,03,20,07,57,9.70
2019,03,20,07,58,9.70
2019,03,20,07,59,9.70
2019,03,20,08,00,9.70
2019,03,20,08,01,9.80
2019,03,20,08,02,9.90
2019,03,20,08,03,9.90
2019,03,20,08,04,9.90
2019,03,20,08,05,10.00
2019,03,20,08,06,10.00
2019,03,20,08,07,10.00
2019,03,20,08,08,10.10
2019,03,20,08,09,10.10
2019,03,20,08,10,10.20
2019,03,20,08,11,10.20
2019,03,20,08,12,10.30
2019,03,20,08,13,10.40
2019,03,20,08,14,10.50
2019,03,20,08,15,10.50
2019,03,20,08,16,10.60
2019,03,20,08,17,10.70
2019,03,20,08,18,10.70
2019,03,20,08,19,10.80
2019,03,20,08,20,10.90
2019,03,20,08,21,11.00
2019,03,20,08,22,11.10
2019,03,20,08,23,11.20
2019,03,20,08,24,11.30
2019,03,20,08,25,11.40
2019,03,20,08,26,11.50
2019,03,20,08,27,11.60
2019,03,20,08,28,11.70
2019,03,20,08,29,11.70
2019,03,20,08,30,11.60
2019,03,20,08,31,11.50
2019,03,20,08,32,11.50
2019,03,20,08,33,11.40
2019,03,20,08,34,11.40
2019,03,20,08,35,11.30
2019,03,20,08,36,11.30
2019,03,20,08,37,11.30
2019,03,20,08,38,11.20
2019,03,20,08,39,11.20
2019,03,20,08,40,11.20
2019,03,20,08,41,11.20
2019,03,20,08,42,11.10
2019,03,20,08,43,11.20
2019,03,20,08,44,11.20
2019,03,20,08,45,11.20
2019,03,20,08,46,11.20
2019,03,20,08,47,11.20
2019,03,20,08,48,11.20
2019,03,20,08,49,11.30
2019,03,20,08,50,11.30
2019,03,20,08,51,11.40
2019,03,20,08,52,11.40
2019,03,20,08,53,11.50
2019,03,20,08,54,11.50
2019,03,20,08,55,11.60
2019,03,20,08,56,11.70
2019,03,20,08,57,11.70
2019,03,20,08,58,11.80
2019,03,20,08,59,11.90
2019,03,20,09,00,11.90
2019,03,20,09,01,12.00
2019,03,20,09,02,12.00
2019,03,20,09,03,12.10
2019,03,20,09,04,12.10
2019,03,20,09,05,12.20
2019,03,20,09,06,12.30
2019,03,20,09,07,12.30
2019,03,20,09,08,12.40
2019,03,20,09,09,12.50
2019,03,20,09,10,12.60
2019,03,20,09,11,12.60
2019,03,20,09,12,12.70
2019,03,20,09,13,12.80
2019,03,20,09,14,12.90
2019,03,20,09,15,13.10
2019,03,20,09,16,13.30
2019,03,20,09,17,13.40
2019,03,20,09,18,13.60
2019,03,20,09,19,13.70
2019,03,20,09,20,13.80
2019,03,20,09,21,13.90
2019,03,20,09,22,14.00
2019,03,20,09,23,14.10
2019,03,20,09,24,14.20
2019,03,20,09,25,14.30
2019,03,20,09,26,14.30
2019,03,20,09,27,14.40
2019,03,20,09,28,14.50
2019,03,20,09,29,14.60
2019,03,20,09,30,14.60
2019,03,20,09,31,14.70
2019,03,20,09,32,14.80
2019,03,20,09,33,14.80
2019,03,20,09,34,14.90
2019,03,20,09,35,14.90
2019,03,20,09,36,15.00
2019,03,20,09,37,15.10
2019,03,20,09,38,15.10
2019,03,20,09,39,15.10
2019,03,20,09,40,15.20
2019,03,20,09,41,15.40
2019,03,20,09,42,15.50
2019,03,20,09,43,15.50
2019,03,20,09,44,15.60
2019,03,20,09,45,15.60
2019,03,20,09,46,15.70
2019,03,20,09,47,15.70
2019,03,20,09,48,15.80
2019,03,20,09,49,15.80
2019,03,20,09,50,15.80
2019,03,20,09,51,15.90
2019,03,20,09,52,15.90
2019,03,20,09,53,15.90
2019,03,20,09,54,16.00
2019,03,20,09,55,16.00
2019,03,20,09,56,16.00
2019,03,20,09,57,16.00
2019,03,20,09,58,16.00
2019,03,20,09,59,16.10
2019,03,20,10,00,16.10
2019,03,20,10,01,16.20
2019,03,20,10,02,16.20
2019,03,20,10,03,16.30
2019,03,20,10,04,16.30
2019,03,20,10,05,16.30
2019,03,20,10,06,16.30
2019,03,20,10,07,16.30
2019,03,20,10,08,16.30
2019,03,20,10,09,16.30
2019,03,20,10,10,16.20
2019,03,20,10,11,16.20
2019,03,20,10,12,16.20
2019,03,20,10,13,16.20
2019,03,20,10,14,16.10
2019,03,20,10,15,16.00
2019,03,20,10,16,15.90
2019,03,20,10,17,15.90
2019,03,20,10,18,15.90
2019,03,20,10,19,15.80
2019,03,20,10,20,15.80
2019,03,20,10,21,15.80
2019,03,20,10,22,15.70
2019,03,20,10,23,15.70
2019,03,20,10,24,15.70
2019,03,20,10,25,15.70
2019,03,20,10,26,15.80
2019,03,20,10,27,15.80
2019,03,20,10,28,15.80
2019,03,20,10,29,15.90
2019,03,20,10,30,16.00
2019,03,20,10,31,16.10
2019,03,20,10,32,16.20
2019,03,20,10,33,16.20
2019,03,20,10,34,16.30
2019,03,20,10,35,16.30
2019,03,20,10,36,16.40
2019,03,20,10,37,16.40
2019,03,20,10,38,16.50
2019,03,20,10,39,16.50
2019,03,20,10,40,16.60
2019,03,20,10,41,16.60
2019,03,20,10,42,16.60
2019,03,20,10,43,16.70
2019,03,20,10,44,16.80
2019,03,20,10,45,16.80
2019,03,20,10,46,16.90
2019,03,20,10,47,17.00
2019,03,20,10,48,17.10
2019,03,20,10,49,17.10
2019,03,20,10,50,17.20
2019,03,20,10,51,17.30
2019,03,20,10,52,17.40
2019,03,20,10,53,17.50
2019,03,20,10,54,17.60
2019,03,20,10,55,17.70
2019,03,20,10,56,17.70
2019,03,20,10,57,17.80
2019,03,20,10,58,17.80
2019,03,20,10,59,17.90
2019,03,20,11,00,17.90
2019,03,20,11,01,17.90
2019,03,20,11,02,17.90
2019,03,20,11,03,18.00
2019,03,20,11,04,18.00
2019,03,20,11,05,18.00
2019,03,20,11,06,18.10
2019,03,20,11,07,18.10
2019,03,20,11,08,18.10
2019,03,20,11,09,18.10
2019,03,20,11,10,18.10
2019,03,20,11,11,18.10
2019,03,20,11,12,18.00
2019,03,20,11,13,18.00
2019,03,20,11,14,17.90
2019,03,20,11,15,17.90
2019,03,20,11,16,17.80
2019,03,20,11,17,17.80
2019,03,20,11,18,17.70
2019,03,20,11,19,17.70
2019,03,20,11,20,17.60
2019,03,20,11,21,17.50
2019,03,20,11,22,17.40
2019,03,20,11,23,17.40
2019,03,20,11,24,17.30
2019,03,20,11,25,17.30
2019,03,20,11,26,17.20
2019,03,20,11,27,17.20
2019,03,20,11,28,17.10
2019,03,20,11,29,17.00
2019,03,20,11,30,16.90
2019,03,20,11,31,16.80
2019,03,20,11,32,16.70
2019,03,20,11,33,16.70
2019,03,20,11,34,16.60
2019,03,20,11,35,16.50
2019,03,20,11,36,16.50
2019,03,20,11,37,16.40
2019,03,20,11,38,16.30
2019,03,20,11,39,16.20
2019,03,20,11,40,16.20
2019,03,20,11,41,16.20
2019,03,20,11,42,16.10
2019,03,20,11,43,16.00
2019,03,20,11,44,16.00
2019,03,20,11,45,15.90
2019,03,20,11,46,15.90
2019,03,20,11,47,15.90
2019,03,20,11,48,15.90
2019,03,20,11,49,16.00
2019,03,20,11,50,16.00
2019,03,20,11,51,15.90
2019,03,20,11,52,15.90
2019,03,20,11,53,15.90
2019,03,20,11,54,15.90
2019,03,20,11,55,16.00
2019,03,20,11,56,16.00
2019,03,20,11,57,16.00
2019,03,20,11,58,16.00
2019,03,20,11,59,16.10
2019,03,20,12,00,16.20
2019,03,20,12,01,16.20
2019,03,20,12,02,16.20
2019,03,20,12,03,16.20
2019,03,20,12,04,16.10
2019,03,20,12,05,16.10
2019,03,20,12,06,16.10
2019,03,20,12,07,16.10
2019,03,20,12,08,16.10
2019,03,20,12,09,16.10
2019,03,20,12,10,16.10
2019,03,20,12,11,16.10
2019,03,20,12,12,16.10
2019,03,20,12,13,16.10
2019,03,20,12,14,16.10
2019,03,20,12,15,16.10
2019,03,20,12,16,16.00
2019,03,20,12,17,16.00
2019,03,20,12,18,15.90
2019,03,20,12,19,15.80
2019,03,20,12,20,15.70
2019,03,20,12,21,15.70
2019,03,20,12,22,15.70
2019,03,20,12,23,15.80
2019,03,20,12,24,15.80
2019,03,20,12,25,15.90
2019,03,20,12,26,16.00
2019,03,20,12,27,16.00
2019,03,20,12,28,16.10
2019,03,20,12,29,16.00
2019,03,20,12,30,16.00
2019,03,20,12,31,15.90
2019,03,20,12,32,15.70
2019,03,20,12,33,15.60
2019,03,20,12,34,15.50
2019,03,20,12,35,15.40
2019,03,20,12,36,15.30
2019,03,20,12,37,15.20
2019,03,20,12,38,15.10
2019,03,20,12,39,15.10
2019,03,20,12,40,15.00
2019,03,20,12,41,15.00
2019,03,20,12,42,14.90
2019,03,20,12,43,14.90
2019,03,20,12,44,14.80
2019,03,20,12,45,14.80
2019,03,20,12,46,14.70
2019,03,20,12,47,14.70
2019,03,20,12,48,14.70
2019,03,20,12,49,14.70
2019,03,20,12,50,14.70
2019,03,20,12,51,14.80
2019,03,20,12,52,14.90
2019,03,20,12,53,15.00
2019,03,20,12,54,15.10
2019,03,20,12,55,15.20
2019,03,20,12,56,15.30
2019,03,20,12,57,15.30
2019,03,20,12,58,15.30
2019,03,20,12,59,15.30
2019,03,20,13,00,15.20
2019,03,20,13,01,15.20
2019,03,20,13,02,15.20
2019,03,20,13,03,15.20
2019,03,20,13,04,15.20
2019,03,20,13,05,15.30
2019,03,20,13,06,15.30
2019,03,20,13,07,15.40
2019,03,20,13,08,15.50
2019,03,20,13,09,15.50
2019,03,20,13,10,15.60
2019,03,20,13,11,15.70
2019,03,20,13,12,15.80
2019,03,20,13,13,15.80
2019,03,20,13,14,15.70
2019,03,20,13,15,15.60
2019,03,20,13,16,15.60
2019,03,20,13,17,15.60
2019,03,20,13,18,15.50
2019,03,20,13,19,15.50
2019,03,20,13,20,15.60
2019,03,20,13,21,15.60
2019,03,20,13,22,15.70
2019,03,20,13,23,15.70
2019,03,20,13,24,15.70
2019,03,20,13,25,15.80
2019,03,20,13,26,15.90
2019,03,20,13,27,15.90
2019,03,20,13,28,15.90
2019,03,20,13,29,15.90
2019,03,20,13,30,15.90
2019,03,20,13,31,15.80
2019,03,20,13,32,15.80
2019,03,20,13,33,15.70
2019,03,20,13,34,15.70
2019,03,20,13,35,15.60
2019,03,20,13,36,15.60
2019,03,20,13,37,15.60
2019,03,20,13,38,15.60
2019,03,20,13,39,15.60
2019,03,20,13,40,15.60
2019,03,20,13,41,15.50
2019,03,20,13,42,15.50
2019,03,20,13,43,15.60
2019,03,20,13,44,15.60
2019,03,20,13,45,15.70
2019,03,20,13,46,15.60
2019,03,20,13,47,15.60
2019,03,20,13,48,15.60
2019,03,20,13,49,15.60
2019,03,20,13,50,15.60
2019,03,20,13,51,15.60
2019,03,20,13,52,15.60
2019,03,20,13,53,15.60
2019,03,20,13,54,15.60
2019,03,20,13,55,15.70
2019,03,20,13,56,15.60
2019,03,20,13,57,15.60
2019,03,20,13,58,15.50
2019,03,20,13,59,15.50
2019,03,20,14,00,15.40
2019,03,20,14,01,15.30
2019,03,20,14,02,15.30
2019,03,20,14,03,15.30
2019,03,20,14,04,15.20
2019,03,20,14,05,15.10
2019,03,20,14,06,15.10
2019,03,20,14,07,15.00
2019,03,20,14,08,15.00
2019,03,20,14,09,15.00
2019,03,20,14,10,15.00
2019,03,20,14,11,15.00
2019,03,20,14,12,15.00
2019,03,20,14,13,15.10
2019,03,20,14,14,15.10
2019,03,20,14,15,15.10
2019,03,20,14,16,15.10
2019,03,20,14,17,15.20
2019,03,20,14,18,15.30
2019,03,20,14,19,15.30
2019,03,20,14,20,15.30
2019,03,20,14,21,15.30
2019,03,20,14,22,15.30
2019,03,20,14,23,15.30
2019,03,20,14,24,15.20
2019,03,20,14,25,15.10
2019,03,20,14,26,15.10
2019,03,20,14,27,15.10
2019,03,20,14,28,15.10
2019,03,20,14,29,15.10
2019,03,20,14,30,15.10
2019,03,20,14,31,15.20
2019,03,20,14,32,15.20
2019,03,20,14,33,15.20
2019,03,20,14,34,15.20
2019,03,20,14,35,15.20
2019,03,20,14,36,15.20
2019,03,20,14,37,15.20
2019,03,20,14,38,15.20
2019,03,20,14,39,15.20
2019,03,20,14,40,15.30
2019,03,20,14,41,15.30
2019,03,20,14,42,15.30
2019,03,20,14,43,15.30
2019,03,20,14,44,15.30
2019,03,20,14,45,15.30
2019,03,20,14,46,15.40
2019,03,20,14,47,15.40
2019,03,20,14,48,15.40
2019,03,20,14,49,15.40
2019,03,20,14,50,15.30
2019,03,20,14,51,15.40
2019,03,20,14,52,15.30
2019,03,20,14,53,15.30
2019,03,20,14,54,15.30
2019,03,20,14,55,15.20
2019,03,20,14,56,15.20
2019,03,20,14,57,15.20
2019,03,20,14,58,15.20
2019,03,20,14,59,15.10
2019,03,20,15,00,15.10
2019,03,20,15,01,15.10
2019,03,20,15,02,15.10
2019,03,20,15,03,15.20
2019,03,20,15,04,15.20
2019,03,20,15,05,15.30
2019,03,20,15,06,15.30
2019,03,20,15,07,15.30
2019,03,20,15,08,15.40
2019,03,20,15,09,15.40
2019,03,20,15,10,15.40
2019,03,20,15,11,15.40
2019,03,20,15,12,15.50
2019,03,20,15,13,15.50
2019,03,20,15,14,15.50
2019,03,20,15,15,15.60
2019,03,20,15,16,15.60
2019,03,20,15,17,15.60
2019,03,20,15,18,15.70
2019,03,20,15,19,15.70
2019,03,20,15,20,15.80
2019,03,20,15,21,15.90
2019,03,20,15,22,15.90
2019,03,20,15,23,16.00
2019,03,20,15,24,16.10
2019,03,20,15,25,16.20
2019,03,20,15,26,16.20
2019,03,20,15,27,16.20
2019,03,20,15,28,16.20
2019,03,20,15,29,16.20
2019,03,20,15,30,16.20
2019,03,20,15,31,16.10
2019,03,20,15,32,16.10
2019,03,20,15,33,16.10
2019,03,20,15,34,16.00
2019,03,20,15,35,16.00
2019,03,20,15,36,16.00
2019,03,20,15,37,15.90
2019,03,20,15,38,15.90
2019,03,20,15,39,15.90
2019,03,20,15,40,15.90
2019,03,20,15,41,15.90
2019,03,20,15,42,15.90
2019,03,20,15,43,15.90
2019,03,20,15,44,15.90
2019,03,20,15,45,15.80
2019,03,20,15,46,15.80
2019,03,20,15,47,15.80
2019,03,20,15,48,15.80
2019,03,20,15,49,15.80
2019,03,20,15,50,15.80
2019,03,20,15,51,15.80
2019,03,20,15,52,15.90
2019,03,20,15,53,15.90
2019,03,20,15,54,15.90
2019,03,20,15,55,16.00
2019,03,20,15,56,16.00
2019,03,20,15,57,16.10
2019,03,20,15,58,16.20
2019,03,20,15,59,16.20
2019,03,20,16,00,16.30
2019,03,20,16,01,16.30
2019,03,20,16,02,16.40
2019,03,20,16,03,16.50
2019,03,20,16,04,16.60
2019,03,20,16,05,16.70
2019,03,20,16,06,16.80
2019,03,20,16,07,16.80
2019,03,20,16,08,16.80
2019,03,20,16,09,16.80
2019,03,20,16,10,16.80
2019,03,20,16,11,16.80
2019,03,20,16,12,16.80
2019,03,20,16,13,16.90
2019,03,20,16,14,16.90
2019,03,20,16,15,16.90
2019,03,20,16,16,16.90
2019,03,20,16,17,17.00
2019,03,20,16,18,17.10
2019,03,20,16,19,17.10
2019,03,20,16,20,17.10
2019,03,20,16,21,17.10
2019,03,20,16,22,17.00
2019,03,20,16,23,16.90
2019,03,20,16,24,16.80
2019,03,20,16,25,16.70
2019,03,20,16,26,16.70
2019,03,20,16,27,16.60
2019,03,20,16,28,16.70
2019,03,20,16,29,16.70
2019,03,20,16,30,16.80
2019,03,20,16,31,16.80
2019,03,20,16,32,16.90
2019,03,20,16,33,16.90
2019,03,20,16,34,16.90
2019,03,20,16,35,16.90
2019,03,20,16,36,17.00
2019,03,20,16,37,17.00
2019,03,20,16,38,17.00
2019,03,20,16,39,17.00
2019,03,20,16,40,17.00
2019,03,20,16,41,17.10
2019,03,20,16,42,17.10
2019,03,20,16,43,17.10
2019,03,20,16,44,17.20
2019,03,20,16,45,17.20
2019,03,20,16,46,17.20
2019,03,20,16,47,17.20
2019,03,20,16,48,17.20
2019,03,20,16,49,17.20
2019,03,20,16,50,17.10
2019,03,20,16,51,17.10
2019,03,20,16,52,17.10
2019,03,20,16,53,17.10
2019,03,20,16,54,17.10
2019,03,20,16,55,17.10
2019,03,20,16,56,17.20
2019,03,20,16,57,17.20
2019,03,20,16,58,17.20
2019,03,20,16,59,17.30
2019,03,20,17,00,17.30
2019,03,20,17,01,17.30
2019,03,20,17,02,17.40
2019,03,20,17,03,17.40
2019,03,20,17,04,17.50
2019,03,20,17,05,17.50
2019,03,20,17,06,17.60
2019,03,20,17,07,17.60
2019,03,20,17,08,17.60
2019,03,20,17,09,17.60
2019,03,20,17,10,17.70
2019,03,20,17,11,17.80
2019,03,20,17,12,17.90
2019,03,20,17,13,17.90
2019,03,20,17,14,18.00
2019,03,20,17,15,18.10
2019,03,20,17,16,18.10
2019,03,20,17,17,18.20
2019,03,20,17,18,18.30
2019,03,20,17,19,18.40
2019,03,20,17,20,18.50